Location: Grand Lay
(47.3253°N, 0.9468°E)
Time: 20:01:37
(UTC+00:00)

Cosmos 1862 Rocket - Pass Details

Date: 18 January 2026
Orbit: 596 x 627 km, 82.5° (Epoch: 13 February)

Event Time Altitude Azimuth Distance (km) Brightness Sun altitude
Exits shadow 05:59:52 - 349° (N) 2,650 6.6 -16.0°
Reaches altitude 10° 06:01:33 10° 348° (NNW) 1,964 5.9 -15.8°
Maximum altitude 06:05:53 77° 263° (W) 623 3.4 -15.1°
Drops below altitude 10° 06:10:09 10° 178° (S) 1,933 6.3 -14.4°
Sets 06:12:21 0° 176° (S) 2,828 7.2 -14.0°
